20040109,000009,277031,30.017333,-123.245000,NaN,16.413,32.950,41.986,  NaN,0.0, NaN, NaN, NaN, NaN, NaN,382.632,16.80,1017.96,75.70,NaN,313.0,NaN,8.2,NaN,161.3,NaN,5.7,NaN,NaN, NaN,NaN,240.0,NaN,NaN,NaN,2,8.9,000007,   NaN,241.5,     NaN,      NaN,NaN,4.9,NaN,16.417, NaN,NaN,NaN, NaN, NaN

20040109,000039,277061,30.016667,-123.246167,NaN,16.420,32.953,41.996,  NaN,0.0, NaN, NaN, NaN, NaN, NaN,382.583,16.80,1018.07,75.70,NaN,316.0,NaN,8.0,NaN,164.3,NaN,5.9,NaN,NaN, NaN,NaN,240.0,NaN,NaN,NaN,2,9.2,000037,   NaN,240.3,     NaN,      NaN,NaN,4.7,NaN,16.424, NaN,NaN,NaN, NaN, NaN

20040109,000109,277091,30.016000,-123.247500,NaN,16.431,32.956,42.009,  NaN,0.0, NaN, NaN, NaN, NaN, NaN,382.615,16.80,1017.91,74.60,NaN,311.0,NaN,8.8,NaN,161.9,NaN,6.8,NaN,NaN, NaN,NaN,237.0,NaN,NaN,NaN,2,9.3,000067,   NaN,240.6,     NaN,      NaN,NaN,4.9,NaN,16.435, NaN,NaN,NaN, NaN, NaN

20040109,000139,277121,30.015333,-123.248667,NaN,16.448,32.961,42.031,  NaN,0.0, NaN, NaN, NaN, NaN, NaN,382.647,16.80,1017.96,75.40,NaN,312.0,NaN,8.0,NaN,159.9,NaN,5.6,NaN,NaN, NaN,NaN,239.0,NaN,NaN,NaN,2,8.9,000097,   NaN,241.3,     NaN,      NaN,NaN,4.9,NaN,16.452, NaN,NaN,NaN, NaN, NaN

20040109,000209,277151,30.014833,-123.250000,NaN,16.456,32.965,42.044,  NaN,0.0, NaN, NaN, NaN, NaN, NaN,382.506,16.90,1017.95,76.40,NaN,314.0,NaN,7.3,NaN,156.3,NaN,5.7,NaN,NaN, NaN,NaN,240.0,NaN,NaN,NaN,2,9.2,000127,   NaN,241.9,     NaN,      NaN,NaN,4.6,NaN,16.460, NaN,NaN,NaN, NaN, NaN

20040109,000239,277181,30.014167,-123.251167,NaN,16.466,32.967,42.056,  NaN,0.0, NaN, NaN, NaN, NaN, NaN,382.585,16.90,1017.96,77.20,NaN,315.0,NaN,8.1,NaN,237.3,NaN,2.9,NaN,NaN, NaN,NaN,240.0,NaN,NaN,NaN,2,9.2,000157,   NaN,242.6,     NaN,      NaN,NaN,4.7,NaN,16.470, NaN,NaN,NaN, NaN, NaN

20040109,000309,277211,30.013500,-123.252500,NaN,16.483,32.972,42.077,  NaN,0.0, NaN, NaN, NaN, NaN, NaN,382.620,16.80,1017.95,76.00,NaN,312.0,NaN,8.1,NaN,165.5,NaN,6.2,NaN,NaN, NaN,NaN,240.0,NaN,NaN,NaN,2,9.4,000187,   NaN,242.3,     NaN,      NaN,NaN,5.0,NaN,16.487, NaN,NaN,NaN, NaN, NaN

20040109,000339,277241,30.013000,-123.253833,NaN,16.485,32.974,42.081,  NaN,0.0, NaN, NaN, NaN, NaN, NaN,382.502,16.80,1017.98,76.00,NaN,318.0,NaN,8.0,NaN,161.6,NaN,5.3,NaN,NaN, NaN,NaN,241.0,NaN,NaN,NaN,2,9.4,000217,   NaN,241.8,     NaN,      NaN,NaN,5.1,NaN,16.489, NaN,NaN,NaN, NaN, NaN

20040109,000409,277271,30.012333,-123.255167,NaN,16.490,32.975,42.087,  NaN,0.0, NaN, NaN, NaN, NaN, NaN,382.490,16.80,1017.96,75.70,NaN,318.0,NaN,8.8,NaN,155.7,NaN,6.7,NaN,NaN, NaN,NaN,241.0,NaN,NaN,NaN,2,9.4,000247,   NaN,242.1,     NaN,      NaN,NaN,5.1,NaN,16.493, NaN,NaN,NaN, NaN, NaN

20040109,000439,277301,30.011667,-123.256500,NaN,16.489,32.976,42.086,  NaN,0.0, NaN, NaN, NaN, NaN, NaN,382.447,16.80,1018.03,74.50,NaN,317.0,NaN,8.6,NaN,155.4,NaN,6.7,NaN,NaN, NaN,NaN,242.0,NaN,NaN,NaN,2,9.4,000277,   NaN,241.9,     NaN,      NaN,NaN,5.0,NaN,16.493, NaN,NaN,NaN, NaN, NaN

20040109,000509,277331,30.011000,-123.257667,NaN,16.488,32.975,42.085,  NaN,0.0, NaN, NaN, NaN, NaN, NaN,382.493,16.80,1018.21,74.30,NaN,317.0,NaN,9.1,NaN,162.0,NaN,6.6,NaN,NaN, NaN,NaN,240.0,NaN,NaN,NaN,2,9.2,000307,   NaN,243.1,     NaN,      NaN,NaN,4.8,NaN,16.492, NaN,NaN,NaN, NaN, NaN

20040109,000539,277361,30.010500,-123.259000,NaN,16.483,32.974,42.079,  NaN,0.0, NaN, NaN, NaN, NaN, NaN,382.463,16.90,1017.97,75.20,NaN,320.0,NaN,8.0,NaN,175.4,NaN,5.5,NaN,NaN, NaN,NaN,241.0,NaN,NaN,NaN,2,9.1,000337,   NaN,243.2,     NaN,      NaN,NaN,5.3,NaN,16.487, NaN,NaN,NaN, NaN, NaN

20040109,000609,277391,30.009833,-123.260333,NaN,16.481,32.974,42.077,  NaN,0.0, NaN, NaN, NaN, NaN, NaN,382.428,16.90,1017.85,74.50,NaN,313.0,NaN,8.2,NaN,162.4,NaN,5.5,NaN,NaN, NaN,NaN,239.0,NaN,NaN,NaN,2,9.0,000367,   NaN,240.8,     NaN,      NaN,NaN,4.6,NaN,16.485, NaN,NaN,NaN, NaN, NaN

20040109,000639,277421,30.009167,-123.261500,NaN,16.479,32.973,42.075,  NaN,0.0, NaN, NaN, NaN, NaN, NaN,382.390,16.80,1018.01,72.90,NaN,314.0,NaN,10.0,NaN,238.0,NaN,5.3,NaN,NaN, NaN,NaN,240.0,NaN,NaN,NaN,2,9.2,000397,   NaN,241.8,     NaN,      NaN,NaN,4.8,NaN,16.483, NaN,NaN,NaN, NaN, NaN

20040109,000709,277451,30.008667,-123.262833,NaN,16.482,32.974,42.078,  NaN,0.0, NaN, NaN, NaN, NaN, NaN,382.446,16.90,1018.09,75.00,NaN,320.0,NaN,8.7,NaN,237.8,NaN,4.0,NaN,NaN, NaN,NaN,239.0,NaN,NaN,NaN,2,9.1,000427,   NaN,242.1,     NaN,      NaN,NaN,4.8,NaN,16.486, NaN,NaN,NaN, NaN, NaN

20040109,000739,277481,30.008000,-123.264167,NaN,16.484,32.975,42.080,  NaN,0.0, NaN, NaN, NaN, NaN, NaN,382.416,16.90,1017.93,74.20,NaN,358.0,NaN,9.2,NaN,161.9,NaN,7.6,NaN,NaN, NaN,NaN,240.0,NaN,NaN,NaN,2,9.1,000457,   NaN,243.1,     NaN,      NaN,NaN,4.7,NaN,16.488, NaN,NaN,NaN, NaN, NaN

20040109,000809,277511,30.007333,-123.265333,NaN,16.496,32.975,42.093,  NaN,0.0, NaN, NaN, NaN, NaN, NaN,382.623,16.90,1018.07,74.10,NaN,319.0,NaN,8.7,NaN,163.5,NaN,5.8,NaN,NaN, NaN,NaN,239.0,NaN,NaN,NaN,2,9.2,000487,   NaN,241.8,     NaN,      NaN,NaN,5.0,NaN,16.500, NaN,NaN,NaN, NaN, NaN

20040109,000839,277541,30.006833,-123.266667,NaN,16.505,32.979,42.105,  NaN,0.0, NaN, NaN, NaN, NaN, NaN,382.572,16.90,1017.90,73.40,NaN,312.0,NaN,9.8,NaN,164.1,NaN,6.2,NaN,NaN, NaN,NaN,241.0,NaN,NaN,NaN,2,9.0,000517,   NaN,243.1,     NaN,      NaN,NaN,5.0,NaN,16.509, NaN,NaN,NaN, NaN, NaN

20040109,000909,277571,30.006167,-123.268000,NaN,16.513,32.980,42.115,  NaN,0.0, NaN, NaN, NaN, NaN, NaN,382.635,16.90,1018.20,73.30,NaN,325.0,NaN,9.1,NaN,179.8,NaN,6.7,NaN,NaN, NaN,NaN,238.0,NaN,NaN,NaN,2,9.0,000547,   NaN,241.8,     NaN,      NaN,NaN,4.9,NaN,16.517, NaN,NaN,NaN, NaN, NaN

20040109,000939,277601,30.005500,-123.269167,NaN,16.531,32.986,42.138,  NaN,0.0, NaN, NaN, NaN, NaN, NaN,382.625,16.90,1017.94,73.20,NaN,311.0,NaN,8.6,NaN,161.5,NaN,6.9,NaN,NaN, NaN,NaN,240.0,NaN,NaN,NaN,2,9.1,000577,   NaN,243.2,     NaN,      NaN,NaN,4.8,NaN,16.535, NaN,NaN,NaN, NaN, NaN

20040109,001009,277631,30.005000,-123.270500,NaN,16.541,32.988,42.150,  NaN,0.0, NaN, NaN, NaN, NaN, NaN,382.658,16.90,1018.18,73.40,NaN,317.0,NaN,8.6,NaN,239.2,NaN,4.7,NaN,NaN, NaN,NaN,241.0,NaN,NaN,NaN,2,9.2,000607,   NaN,243.2,     NaN,      NaN,NaN,4.9,NaN,16.545, NaN,NaN,NaN, NaN, NaN

20040109,001039,277661,30.004333,-123.271833,NaN,16.548,32.992,42.160,  NaN,0.0, NaN, NaN, NaN, NaN, NaN,382.568,16.90,1018.18,73.10,NaN,315.0,NaN,9.0,NaN,169.0,NaN,6.1,NaN,NaN, NaN,NaN,242.0,NaN,NaN,NaN,2,8.9,000637,   NaN,241.3,     NaN,      NaN,NaN,4.6,NaN,16.552, NaN,NaN,NaN, NaN, NaN

20040109,001109,277691,30.003833,-123.273000,NaN,16.567,32.996,42.184,  NaN,0.0, NaN, NaN, NaN, NaN, NaN,382.663,16.90,1018.37,74.00,NaN,314.0,NaN,8.3,NaN,162.9,NaN,5.6,NaN,NaN, NaN,NaN,242.0,NaN,NaN,NaN,2,9.0,000667,   NaN,241.4,     NaN,      NaN,NaN,4.8,NaN,16.571, NaN,NaN,NaN, NaN, NaN

20040109,001139,277721,30.003167,-123.274167,NaN,16.603,33.004,42.227,  NaN,0.0, NaN, NaN, NaN, NaN, NaN,382.884,16.90,1018.10,73.10,NaN,358.0,NaN,8.5,NaN,165.4,NaN,6.1,NaN,NaN, NaN,NaN,241.0,NaN,NaN,NaN,2,8.8,000697,   NaN,243.5,     NaN,      NaN,NaN,4.9,NaN,16.607, NaN,NaN,NaN, NaN, NaN

20040109,001209,277751,30.002500,-123.275500,NaN,16.629,33.016,42.265,  NaN,0.0, NaN, NaN, NaN, NaN, NaN,382.558,16.90,1017.80,72.70,NaN,313.0,NaN,9.2,NaN,164.3,NaN,7.7,NaN,NaN, NaN,NaN,239.0,NaN,NaN,NaN,2,9.1,000727,   NaN,242.2,     NaN,      NaN,NaN,4.5,NaN,16.632, NaN,NaN,NaN, NaN, NaN

20040109,001239,277781,30.002000,-123.276833,NaN,16.651,33.020,42.291,  NaN,0.0, NaN, NaN, NaN, NaN, NaN,382.732,16.90,1018.00,74.20,NaN,320.0,NaN,8.5,NaN,167.2,NaN,6.3,NaN,NaN, NaN,NaN,238.0,NaN,NaN,NaN,2,9.2,000757,   NaN,241.0,     NaN,      NaN,NaN,4.6,NaN,16.655, NaN,NaN,NaN, NaN, NaN

20040109,001309,277811,30.001333,-123.278000,NaN,16.662,33.024,42.305,  NaN,0.0, NaN, NaN, NaN, NaN, NaN,382.701,16.90,1018.15,74.20,NaN,317.0,NaN,8.9,NaN,238.0,NaN,3.9,NaN,NaN, NaN,NaN,240.0,NaN,NaN,NaN,2,9.2,000787,   NaN,242.1,     NaN,      NaN,NaN,4.7,NaN,16.666, NaN,NaN,NaN, NaN, NaN

20040109,001339,277841,30.000667,-123.279333,NaN,16.690,33.031,42.340,  NaN,0.0, NaN, NaN, NaN, NaN, NaN,382.813,17.10,1018.02,75.50,NaN,317.0,NaN,8.8,NaN,172.9,NaN,6.1,NaN,NaN, NaN,NaN,239.0,NaN,NaN,NaN,2,9.2,000817,   NaN,243.2,     NaN,      NaN,NaN,4.8,NaN,16.694, NaN,NaN,NaN, NaN, NaN

20040109,001409,277871,30.000167,-123.280667,NaN,16.720,33.040,42.379,  NaN,0.0, NaN, NaN, NaN, NaN, NaN,382.831,16.90,1018.10,73.40,NaN,318.0,NaN,9.7,NaN,237.5,NaN,4.9,NaN,NaN, NaN,NaN,241.0,NaN,NaN,NaN,2,9.2,000847,   NaN,241.4,     NaN,      NaN,NaN,4.9,NaN,16.724, NaN,NaN,NaN, NaN, NaN

20040109,001439,277901,29.999500,-123.281833,NaN,16.728,33.046,42.393,  NaN,0.0, NaN, NaN, NaN, NaN, NaN,382.564,16.90,1017.98,73.60,NaN,314.0,NaN,8.2,NaN,164.6,NaN,6.3,NaN,NaN, NaN,NaN,240.0,NaN,NaN,NaN,2,9.2,000877,   NaN,242.8,     NaN,      NaN,NaN,4.8,NaN,16.732, NaN,NaN,NaN, NaN, NaN

20040109,001509,277931,29.999000,-123.283167,NaN,16.751,33.051,42.420,  NaN,0.0, NaN, NaN, NaN, NaN, NaN,382.718,16.90,1018.02,74.00,NaN,358.0,NaN,8.9,NaN,166.1,NaN,6.2,NaN,NaN, NaN,NaN,240.0,NaN,NaN,NaN,2,9.1,000907,   NaN,241.8,     NaN,      NaN,NaN,4.9,NaN,16.755, NaN,NaN,NaN, NaN, NaN

20040109,001539,277961,29.998333,-123.284500,NaN,16.762,33.058,42.439,  NaN,0.0, NaN, NaN, NaN, NaN, NaN,382.440,16.90,1018.02,74.30,NaN,311.0,NaN,10.1,NaN,167.8,NaN,7.0,NaN,NaN, NaN,NaN,238.0,NaN,NaN,NaN,2,9.3,000937,   NaN,241.3,     NaN,      NaN,NaN,4.8,NaN,16.766, NaN,NaN,NaN, NaN, NaN

20040109,001609,277991,29.997667,-123.285667,NaN,16.767,33.059,42.445,  NaN,0.0, NaN, NaN, NaN, NaN, NaN,382.489,16.90,1018.16,73.30,NaN,313.0,NaN,9.8,NaN,174.7,NaN,6.3,NaN,NaN, NaN,NaN,242.0,NaN,NaN,NaN,2,9.3,000967,   NaN,242.0,     NaN,      NaN,NaN,4.7,NaN,16.771, NaN,NaN,NaN, NaN, NaN

20040109,001639,278021,29.997000,-123.287000,NaN,16.772,33.060,42.451,  NaN,0.0, NaN, NaN, NaN, NaN, NaN,382.498,16.90,1018.27,72.80,NaN,313.0,NaN,9.5,NaN,168.3,NaN,7.5,NaN,NaN, NaN,NaN,241.0,NaN,NaN,NaN,2,9.3,000997,   NaN,242.9,     NaN,      NaN,NaN,4.8,NaN,16.776, NaN,NaN,NaN, NaN, NaN

20040109,001709,278051,29.996500,-123.288333,NaN,16.777,33.062,42.458,  NaN,0.0, NaN, NaN, NaN, NaN, NaN,382.484,16.90,1017.99,74.10,NaN,322.0,NaN,8.9,NaN,167.0,NaN,6.9,NaN,NaN, NaN,NaN,241.0,NaN,NaN,NaN,2,9.3,001027,   NaN,241.3,     NaN,      NaN,NaN,4.8,NaN,16.781, NaN,NaN,NaN, NaN, NaN

20040109,001739,278081,29.995833,-123.289667,NaN,16.782,33.063,42.464,  NaN,0.0, NaN, NaN, NaN, NaN, NaN,382.491,16.90,1018.09,74.00,NaN,322.0,NaN,8.6,NaN,167.4,NaN,6.3,NaN,NaN, NaN,NaN,239.0,NaN,NaN,NaN,2,9.3,001057,   NaN,240.3,     NaN,      NaN,NaN,4.9,NaN,16.786, NaN,NaN,NaN, NaN, NaN

20040109,001809,278111,29.995167,-123.290833,NaN,16.783,33.065,42.467,  NaN,0.0, NaN, NaN, NaN, NaN, NaN,382.421,16.90,1018.00,73.30,NaN,322.0,NaN,9.6,NaN,174.3,NaN,6.9,NaN,NaN, NaN,NaN,238.0,NaN,NaN,NaN,2,9.2,001087,   NaN,241.9,     NaN,      NaN,NaN,4.7,NaN,16.787, NaN,NaN,NaN, NaN, NaN

20040109,001839,278141,29.994667,-123.292167,NaN,16.785,33.064,42.467,  NaN,0.0, NaN, NaN, NaN, NaN, NaN,382.528,16.90,1018.18,73.80,NaN,358.0,NaN,9.2,NaN,175.4,NaN,6.1,NaN,NaN, NaN,NaN,240.0,NaN,NaN,NaN,2,9.1,001117,   NaN,241.5,     NaN,      NaN,NaN,4.8,NaN,16.789, NaN,NaN,NaN, NaN, NaN

20040109,001909,278171,29.994000,-123.293333,NaN,16.784,33.064,42.467,  NaN,0.0, NaN, NaN, NaN, NaN, NaN,382.528,16.90,1018.17,72.70,NaN,317.0,NaN,8.0,NaN,160.4,NaN,6.1,NaN,NaN, NaN,NaN,242.0,NaN,NaN,NaN,2,9.3,001147,   NaN,242.6,     NaN,      NaN,NaN,4.7,NaN,16.788, NaN,NaN,NaN, NaN, NaN

20040109,001939,278201,29.993333,-123.294667,NaN,16.784,33.063,42.466,  NaN,0.0, NaN, NaN, NaN, NaN, NaN,382.573,16.90,1018.00,73.10,NaN,358.0,NaN,9.3,NaN,238.8,NaN,4.3,NaN,NaN, NaN,NaN,241.0,NaN,NaN,NaN,2,9.2,001177,   NaN,243.0,     NaN,      NaN,NaN,5.0,NaN,16.788, NaN,NaN,NaN, NaN, NaN

20040109,002009,278231,29.992833,-123.296000,NaN,16.783,33.063,42.465,  NaN,0.0, NaN, NaN, NaN, NaN, NaN,382.533,17.10,1018.13,75.10,NaN,318.0,NaN,8.4,NaN,170.6,NaN,5.9,NaN,NaN, NaN,NaN,240.0,NaN,NaN,NaN,2,9.3,001207,   NaN,241.8,     NaN,      NaN,NaN,4.5,NaN,16.787, NaN,NaN,NaN, NaN, NaN

20040109,002039,278261,29.992167,-123.297333,NaN,16.781,33.062,42.462,  NaN,0.0, NaN, NaN, NaN, NaN, NaN,382.559,16.90,1018.06,73.10,NaN,322.0,NaN,9.3,NaN,171.3,NaN,5.9,NaN,NaN, NaN,NaN,240.0,NaN,NaN,NaN,2,9.2,001237,   NaN,242.0,     NaN,      NaN,NaN,4.8,NaN,16.785, NaN,NaN,NaN, NaN, NaN

20040109,002109,278291,29.991500,-123.298667,NaN,16.780,33.061,42.460,  NaN,0.0, NaN, NaN, NaN, NaN, NaN,382.609,16.90,1018.28,75.20,NaN,313.0,NaN,9.4,NaN,169.2,NaN,5.9,NaN,NaN, NaN,NaN,243.0,NaN,NaN,NaN,2,9.3,001267,   NaN,243.4,     NaN,      NaN,NaN,4.8,NaN,16.784, NaN,NaN,NaN, NaN, NaN

20040109,002139,278321,29.991000,-123.299833,NaN,16.778,33.060,42.457,  NaN,0.0, NaN, NaN, NaN, NaN, NaN,382.640,16.90,1018.03,73.70,NaN,316.0,NaN,8.4,NaN,171.9,NaN,6.2,NaN,NaN, NaN,NaN,241.0,NaN,NaN,NaN,2,9.2,001297,   NaN,243.6,     NaN,      NaN,NaN,4.8,NaN,16.782, NaN,NaN,NaN, NaN, NaN

20040109,002209,278351,29.990333,-123.301167,NaN,16.775,33.060,42.454,  NaN,0.0, NaN, NaN, NaN, NaN, NaN,382.621,16.90,1018.32,73.60,NaN,358.0,NaN,8.4,NaN,171.2,NaN,5.4,NaN,NaN, NaN,NaN,240.0,NaN,NaN,NaN,2,9.2,001327,   NaN,241.9,     NaN,      NaN,NaN,4.5,NaN,16.779, NaN,NaN,NaN, NaN, NaN

20040109,002239,278381,29.989667,-123.302500,NaN,16.775,33.060,42.453,  NaN,0.0, NaN, NaN, NaN, NaN, NaN,382.602,16.90,1018.02,74.00,NaN,315.0,NaN,7.9,NaN,237.5,NaN,3.3,NaN,NaN, NaN,NaN,241.0,NaN,NaN,NaN,2,9.0,001357,   NaN,242.3,     NaN,      NaN,NaN,4.6,NaN,16.779, NaN,NaN,NaN, NaN, NaN

20040109,002309,278411,29.989167,-123.303833,NaN,16.773,33.059,42.451,  NaN,0.0, NaN, NaN, NaN, NaN, NaN,382.608,16.90,1018.16,73.40,NaN,314.0,NaN,8.5,NaN,165.1,NaN,6.5,NaN,NaN, NaN,NaN,241.0,NaN,NaN,NaN,2,9.3,001387,   NaN,241.2,     NaN,      NaN,NaN,4.6,NaN,16.777, NaN,NaN,NaN, NaN, NaN

20040109,002339,278441,29.988500,-123.305000,NaN,16.769,33.058,42.445,  NaN,0.0, NaN, NaN, NaN, NaN, NaN,382.619,16.90,1018.10,75.20,NaN,318.0,NaN,7.4,NaN,161.8,NaN,5.6,NaN,NaN, NaN,NaN,240.0,NaN,NaN,NaN,2,9.2,001417,   NaN,242.4,     NaN,      NaN,NaN,4.8,NaN,16.773, NaN,NaN,NaN, NaN, NaN

20040109,002409,278471,29.988000,-123.306333,NaN,16.761,33.055,42.435,  NaN,0.0, NaN, NaN, NaN, NaN, NaN,382.666,16.90,1018.13,74.70,NaN,358.0,NaN,8.0,NaN,158.4,NaN,5.5,NaN,NaN, NaN,NaN,243.0,NaN,NaN,NaN,2,9.1,001447,   NaN,243.3,     NaN,      NaN,NaN,4.7,NaN,16.766, NaN,NaN,NaN, NaN, NaN

20040109,002439,278501,29.987333,-123.307667,NaN,16.760,33.053,42.432,  NaN,0.0, NaN, NaN, NaN, NaN, NaN,382.758,16.90,1018.13,74.10,NaN,358.0,NaN,9.7,NaN,161.8,NaN,7.2,NaN,NaN, NaN,NaN,243.0,NaN,NaN,NaN,2,9.3,001477,   NaN,243.4,     NaN,      NaN,NaN,4.7,NaN,16.764, NaN,NaN,NaN, NaN, NaN

20040109,002509,278531,29.986833,-123.308833,NaN,16.762,33.054,42.435,  NaN,0.0, NaN, NaN, NaN, NaN, NaN,382.686,16.90,1018.35,74.20,NaN,317.0,NaN,9.5,NaN,178.4,NaN,6.0,NaN,NaN, NaN,NaN,242.0,NaN,NaN,NaN,2,9.2,001507,   NaN,242.2,     NaN,      NaN,NaN,4.5,NaN,16.766, NaN,NaN,NaN, NaN, NaN

20040109,002539,278561,29.986167,-123.310167,NaN,16.755,33.053,42.426,  NaN,0.0, NaN, NaN, NaN, NaN, NaN,382.639,16.90,1018.24,74.30,NaN,312.0,NaN,8.6,NaN,164.4,NaN,6.2,NaN,NaN, NaN,NaN,243.0,NaN,NaN,NaN,2,9.4,001537,   NaN,243.4,     NaN,      NaN,NaN,4.9,NaN,16.759, NaN,NaN,NaN, NaN, NaN

20040109,002609,278591,29.985500,-123.311500,NaN,16.748,33.049,42.416,  NaN,0.0, NaN, NaN, NaN, NaN, NaN,382.794,16.90,1018.23,75.70,NaN,316.0,NaN,7.5,NaN,152.5,NaN,6.0,NaN,NaN, NaN,NaN,242.0,NaN,NaN,NaN,2,9.3,001567,   NaN,242.4,     NaN,      NaN,NaN,4.4,NaN,16.752, NaN,NaN,NaN, NaN, NaN

20040109,002639,278621,29.985000,-123.312833,NaN,16.746,33.048,42.413,  NaN,0.0, NaN, NaN, NaN, NaN, NaN,382.801,16.90,1018.21,75.00,NaN,322.0,NaN,8.7,NaN,237.8,NaN,3.6,NaN,NaN, NaN,NaN,244.0,NaN,NaN,NaN,2,9.1,001597,   NaN,242.4,     NaN,      NaN,NaN,4.8,NaN,16.750, NaN,NaN,NaN, NaN, NaN

20040109,002709,278651,29.984333,-123.314000,NaN,16.740,33.048,42.406,  NaN,0.0, NaN, NaN, NaN, NaN, NaN,382.684,16.90,1018.13,75.70,NaN,320.0,NaN,9.0,NaN,166.0,NaN,5.8,NaN,NaN, NaN,NaN,242.0,NaN,NaN,NaN,2,9.1,001627,   NaN,240.8,     NaN,      NaN,NaN,4.7,NaN,16.744, NaN,NaN,NaN, NaN, NaN

20040109,002739,278681,29.983667,-123.315333,NaN,16.732,33.044,42.395,  NaN,0.0, NaN, NaN, NaN, NaN, NaN,382.753,16.90,1018.35,74.70,NaN,316.0,NaN,8.6,NaN,160.0,NaN,6.6,NaN,NaN, NaN,NaN,242.0,NaN,NaN,NaN,2,9.2,001657,   NaN,241.1,     NaN,      NaN,NaN,4.9,NaN,16.736, NaN,NaN,NaN, NaN, NaN

20040109,002809,278711,29.983167,-123.316667,NaN,16.723,33.043,42.384,  NaN,0.0, NaN, NaN, NaN, NaN, NaN,382.692,16.90,1018.11,74.30,NaN,311.0,NaN,8.1,NaN,164.3,NaN,6.6,NaN,NaN, NaN,NaN,241.0,NaN,NaN,NaN,2,9.2,001687,   NaN,241.4,     NaN,      NaN,NaN,4.6,NaN,16.727, NaN,NaN,NaN, NaN, NaN

20040109,002839,278741,29.982500,-123.318000,NaN,16.715,33.041,42.374,  NaN,0.0, NaN, NaN, NaN, NaN, NaN,382.672,16.90,1018.32,74.60,NaN,319.0,NaN,8.7,NaN,172.0,NaN,5.9,NaN,NaN, NaN,NaN,240.0,NaN,NaN,NaN,2,9.2,001717,   NaN,241.2,     NaN,      NaN,NaN,4.9,NaN,16.719, NaN,NaN,NaN, NaN, NaN

20040109,002909,278771,29.981833,-123.319167,NaN,16.713,33.037,42.368,  NaN,0.0, NaN, NaN, NaN, NaN, NaN,382.901,16.90,1018.12,74.20,NaN,358.0,NaN,8.4,NaN,165.9,NaN,6.0,NaN,NaN, NaN,NaN,240.0,NaN,NaN,NaN,2,9.1,001747,   NaN,241.3,     NaN,      NaN,NaN,4.6,NaN,16.717, NaN,NaN,NaN, NaN, NaN

20040109,002939,278801,29.981167,-123.320500,NaN,16.740,33.044,42.402,  NaN,0.0, NaN, NaN, NaN, NaN, NaN,382.998,16.90,1018.18,74.30,NaN,358.0,NaN,8.7,NaN,166.0,NaN,6.4,NaN,NaN, NaN,NaN,240.0,NaN,NaN,NaN,2,9.2,001777,   NaN,241.1,     NaN,      NaN,NaN,5.0,NaN,16.744, NaN,NaN,NaN, NaN, NaN

20040109,003009,278831,29.980667,-123.321833,NaN,16.763,33.051,42.432,  NaN,0.0, NaN, NaN, NaN, NaN, NaN,383.015,16.90,1018.16,74.70,NaN,358.0,NaN,8.4,NaN,164.0,NaN,6.2,NaN,NaN, NaN,NaN,241.0,NaN,NaN,NaN,2,9.1,001807,   NaN,241.1,     NaN,      NaN,NaN,4.8,NaN,16.767, NaN,NaN,NaN, NaN, NaN

20040109,003039,278861,29.980000,-123.323000,NaN,16.776,33.054,42.448,  NaN,0.0, NaN, NaN, NaN, NaN, NaN,383.043,16.90,1018.32,74.90,NaN,316.0,NaN,8.7,NaN,171.1,NaN,5.9,NaN,NaN, NaN,NaN,241.0,NaN,NaN,NaN,2,9.2,001837,   NaN,241.6,     NaN,      NaN,NaN,4.8,NaN,16.780, NaN,NaN,NaN, NaN, NaN

20040109,003109,278891,29.979333,-123.324333,NaN,16.786,33.058,42.461,  NaN,0.0, NaN, NaN, NaN, NaN, NaN,382.971,16.90,1018.22,75.40,NaN,317.0,NaN,8.3,NaN,169.3,NaN,6.3,NaN,NaN, NaN,NaN,238.0,NaN,NaN,NaN,2,9.1,001867,   NaN,240.9,     NaN,      NaN,NaN,4.8,NaN,16.790, NaN,NaN,NaN, NaN, NaN

20040109,003139,278921,29.978833,-123.325500,NaN,16.793,33.060,42.472,  NaN,0.0, NaN, NaN, NaN, NaN, NaN,382.949,16.90,1018.28,74.70,NaN,319.0,NaN,7.8,NaN,167.6,NaN,5.0,NaN,NaN, NaN,NaN,243.0,NaN,NaN,NaN,2,9.1,001897,   NaN,243.6,     NaN,      NaN,NaN,4.7,NaN,16.797, NaN,NaN,NaN, NaN, NaN

20040109,003209,278951,29.978167,-123.326833,NaN,16.800,33.061,42.479,  NaN,0.0, NaN, NaN, NaN, NaN, NaN,383.039,16.90,1018.60,75.90,NaN,318.0,NaN,8.5,NaN,171.6,NaN,5.8,NaN,NaN, NaN,NaN,241.0,NaN,NaN,NaN,2,9.1,001927,   NaN,241.3,     NaN,      NaN,NaN,4.8,NaN,16.804, NaN,NaN,NaN, NaN, NaN

20040109,003239,278981,29.977500,-123.328000,NaN,16.807,33.061,42.485,  NaN,0.0, NaN, NaN, NaN, NaN, NaN,383.179,16.90,1018.21,74.70,NaN,316.0,NaN,8.5,NaN,167.5,NaN,5.6,NaN,NaN, NaN,NaN,241.0,NaN,NaN,NaN,2,8.9,001957,   NaN,239.9,     NaN,      NaN,NaN,4.7,NaN,16.811, NaN,NaN,NaN, NaN, NaN

20040109,003309,279011,29.976833,-123.329333,NaN,16.808,33.062,42.487,  NaN,0.0, NaN, NaN, NaN, NaN, NaN,383.152,16.90,1018.25,76.40,NaN,318.0,NaN,7.6,NaN,163.2,NaN,5.8,NaN,NaN, NaN,NaN,240.0,NaN,NaN,NaN,2,9.2,001987,   NaN,242.4,     NaN,      NaN,NaN,4.8,NaN,16.812, NaN,NaN,NaN, NaN, NaN

20040109,003339,279041,29.976333,-123.330500,NaN,16.809,33.061,42.488,  NaN,0.0, NaN, NaN, NaN, NaN, NaN,383.236,16.90,1018.33,76.00,NaN,323.0,NaN,8.1,NaN,167.7,NaN,5.4,NaN,NaN, NaN,NaN,243.0,NaN,NaN,NaN,2,9.1,002017,   NaN,241.9,     NaN,      NaN,NaN,5.0,NaN,16.814, NaN,NaN,NaN, NaN, NaN

20040109,003409,279071,29.975667,-123.331833,NaN,16.809,33.060,42.486,  NaN,0.0, NaN, NaN, NaN, NaN, NaN,383.304,16.90,1018.26,75.50,NaN,316.0,NaN,8.1,NaN,163.7,NaN,5.7,NaN,NaN, NaN,NaN,242.0,NaN,NaN,NaN,2,9.2,002047,   NaN,240.9,     NaN,      NaN,NaN,4.9,NaN,16.813, NaN,NaN,NaN, NaN, NaN

20040109,003439,279101,29.975167,-123.333167,NaN,16.808,33.059,42.483,  NaN,0.0, NaN, NaN, NaN, NaN, NaN,383.397,16.90,1018.19,76.10,NaN,315.0,NaN,8.6,NaN,166.1,NaN,5.4,NaN,NaN, NaN,NaN,242.0,NaN,NaN,NaN,2,9.0,002077,   NaN,241.5,     NaN,      NaN,NaN,4.9,NaN,16.812, NaN,NaN,NaN, NaN, NaN

20040109,003509,279131,29.974500,-123.334333,NaN,16.809,33.059,42.484,  NaN,0.0, NaN, NaN, NaN, NaN, NaN,383.416,16.90,1018.26,75.90,NaN,320.0,NaN,8.3,NaN,160.1,NaN,6.2,NaN,NaN, NaN,NaN,242.0,NaN,NaN,NaN,2,9.2,002107,   NaN,242.1,     NaN,      NaN,NaN,4.9,NaN,16.813, NaN,NaN,NaN, NaN, NaN

20040109,003539,279161,29.973833,-123.335667,NaN,16.808,33.057,42.482,  NaN,0.0, NaN, NaN, NaN, NaN, NaN,383.529,16.80,1018.37,75.60,NaN,358.0,NaN,8.6,NaN,169.4,NaN,5.6,NaN,NaN, NaN,NaN,241.0,NaN,NaN,NaN,2,9.0,002137,   NaN,241.1,     NaN,      NaN,NaN,4.5,NaN,16.812, NaN,NaN,NaN, NaN, NaN

20040109,003609,279191,29.973333,-123.336833,NaN,16.807,33.057,42.481,  NaN,0.0, NaN, NaN, NaN, NaN, NaN,383.487,16.90,1018.09,76.40,NaN,320.0,NaN,8.0,NaN,172.1,NaN,6.4,NaN,NaN, NaN,NaN,240.0,NaN,NaN,NaN,2,9.1,002167,   NaN,242.0,     NaN,      NaN,NaN,4.8,NaN,16.811, NaN,NaN,NaN, NaN, NaN

20040109,003639,279221,29.972667,-123.338167,NaN,16.805,33.057,42.478,  NaN,0.0, NaN, NaN, NaN, NaN, NaN,383.493,16.90,1018.13,76.40,NaN,327.0,NaN,7.2,NaN,171.5,NaN,5.0,NaN,NaN, NaN,NaN,240.0,NaN,NaN,NaN,2,9.1,002197,   NaN,242.5,     NaN,      NaN,NaN,4.7,NaN,16.809, NaN,NaN,NaN, NaN, NaN

20040109,003709,279251,29.972167,-123.339500,NaN,16.804,33.055,42.476,  NaN,0.0, NaN, NaN, NaN, NaN, NaN,383.585,16.90,1018.38,76.50,NaN,321.0,NaN,8.0,NaN,236.3,NaN,3.1,NaN,NaN, NaN,NaN,241.0,NaN,NaN,NaN,2,9.2,002227,   NaN,241.7,     NaN,      NaN,NaN,4.9,NaN,16.808, NaN,NaN,NaN, NaN, NaN

20040109,003739,279281,29.971500,-123.340667,NaN,16.800,33.053,42.470,  NaN,0.0, NaN, NaN, NaN, NaN, NaN,383.618,16.80,1018.28,75.50,NaN,313.0,NaN,7.6,NaN,163.2,NaN,5.0,NaN,NaN, NaN,NaN,244.0,NaN,NaN,NaN,2,9.2,002257,   NaN,242.6,     NaN,      NaN,NaN,4.9,NaN,16.804, NaN,NaN,NaN, NaN, NaN

20040109,003809,279311,29.970833,-123.342000,NaN,16.800,33.052,42.468,  NaN,0.0, NaN, NaN, NaN, NaN, NaN,383.685,16.90,1018.24,76.60,NaN,319.0,NaN,8.1,NaN,168.4,NaN,4.9,NaN,NaN, NaN,NaN,244.0,NaN,NaN,NaN,2,9.3,002287,   NaN,241.3,     NaN,      NaN,NaN,5.1,NaN,16.804, NaN,NaN,NaN, NaN, NaN

20040109,003839,279341,29.970333,-123.343333,NaN,16.798,33.053,42.467,  NaN,0.0, NaN, NaN, NaN, NaN, NaN,383.645,16.90,1018.33,76.90,NaN,318.0,NaN,8.0,NaN,165.7,NaN,5.3,NaN,NaN, NaN,NaN,242.0,NaN,NaN,NaN,2,9.1,002317,   NaN,240.5,     NaN,      NaN,NaN,4.9,NaN,16.802, NaN,NaN,NaN, NaN, NaN

20040109,003909,279371,29.969667,-123.344500,NaN,16.801,33.052,42.469,  NaN,0.0, NaN, NaN, NaN, NaN, NaN,383.727,16.90,1018.26,76.90,NaN,320.0,NaN,7.7,NaN,163.1,NaN,5.4,NaN,NaN, NaN,NaN,241.0,NaN,NaN,NaN,2,9.3,002347,   NaN,240.7,     NaN,      NaN,NaN,4.5,NaN,16.805, NaN,NaN,NaN, NaN, NaN

20040109,003939,279401,29.969000,-123.345833,NaN,16.800,33.053,42.469,  NaN,0.0, NaN, NaN, NaN, NaN, NaN,383.686,16.90,1018.23,76.30,NaN,320.0,NaN,7.4,NaN,169.6,NaN,4.6,NaN,NaN, NaN,NaN,240.0,NaN,NaN,NaN,2,9.1,002377,   NaN,241.0,     NaN,      NaN,NaN,4.9,NaN,16.804, NaN,NaN,NaN, NaN, NaN

20040109,004009,279431,29.968333,-123.347167,NaN,16.800,33.051,42.467,  NaN,0.0, NaN, NaN, NaN, NaN, NaN,383.818,16.90,1018.14,76.80,NaN,318.0,NaN,7.6,NaN,165.1,NaN,5.0,NaN,NaN, NaN,NaN,241.0,NaN,NaN,NaN,2,9.3,002407,   NaN,241.6,     NaN,      NaN,NaN,4.6,NaN,16.804, NaN,NaN,NaN, NaN, NaN
